Regional Weather Roundup
Issued by NWS Columbia, SC

Home | Current Version | Previous Version | Text Only | Print | Product List | Glossary On
Versions: 1 2 3 4 5 6 7 8 9 10 11 12 13 14 15 16 17 18 19 20 21 22 23 24 25 26 27 28 29 30 31 32 33 34 35 36 37 38 39 40 41 42 43 44 45 46 47 48 49 50
000
ASUS42 KCAE 062310
RWRCAE
REGIONAL WEATHER ROUNDUP
NATIONAL WEATHER SERVICE COLUMBIA SC
700 PM EDT MON JUL 06 2015

NOTE: "FAIR" INDICATES FEW OR NO CLOUDS BELOW 12,000 FEET WITH NO
SIGNIFICANT WEATHER AND/OR OBSTRUCTIONS TO VISIBILITY.

NOT ALL STATIONS ARE QUALITY CONTROLLED BY THE NATIONAL
WEATHER SERVICE. USE DATA WITH CAUTION...ESPECIALLY
DEWPOINT OBSERVATIONS.

SCZ001>056-GAZ040-063>065-077-070000-
...UPSTATE SOUTH CAROLINA...

CITY           SKY/WX    TMP DP  RH WIND       PRES   REMARKS
ANDERSON       PTSUNNY   83  70  64 S6        30.08F
SPARTANBURG      N/A     88  63  42 SW7       30.07S
CLEMSON        PTSUNNY   81  67  62 SW5       30.10S
GREENVILLE     MOSUNNY   84  65  52 SW9       30.09F
GREENWOOD      MOSUNNY   86  69  56 SW9       30.10S
GREER          SUNNY     85  65  51 SW7       30.07F
ROCK HILL      MOSUNNY   88  65  46 SW6       30.06S
CHESTER        CLEAR     88  64  45 S5        30.07S
LAURENS        PTCLDY    86  73  66 SW6       30.08S


...CENTRAL SOUTH CAROLINA...

CITY           SKY/WX    TMP DP  RH WIND       PRES   REMARKS
COLUMBIA APT   PTSUNNY   88  69  53 S8        30.06S
COLUMBIA OWENS MOSUNNY   86  70  58 S8        30.07S
DARLINGTON     SUNNY     88  68  51 S9        30.07S
FLORENCE       SUNNY     87  69  54 S7        30.07S
MCENTIRE ANGB  SUNNY     86  72  61 S6        30.07S
ORANGEBURG     SUNNY     86  68  54 SW7       30.08S
SUMTER SHAW    SUNNY     87  69  54 S8        30.05F
NEWBERRY       CLEAR     86  68  54 SW7       30.10S
BARNWELL       FAIR      88  72  58 SW7       30.08S
MANNING        FAIR      84  64  51 CALM      30.08S
CAMDEN         FAIR      86  70  58 S7        30.07S
LANCASTER      PTCLDY    84  68  58 S7        30.06S
WINNSBORO      PTCLDY    86  68  54 SW5       30.07F


...EASTERN AND COASTAL SOUTH CAROLINA...

CITY           SKY/WX    TMP DP  RH WIND       PRES   REMARKS
MYRTLE BEACH   MOSUNNY   82  72  69 S9        30.12S
N MYRTLE BCH   PTSUNNY   83  73  72 SW10      30.10S
CONWAY         FAIR      79  73  83 S5        30.10S
MARION         FAIR      86  68  54 S5        30.08R
HARTSVILLE     FAIR      86  68  54 SE3       30.06S
FLORENCE       SUNNY     87  69  54 S7        30.07S
DARLINGTON     SUNNY     88  68  51 S9        30.07S
CHARLESTON APT MOSUNNY   84  72  67 S12       30.09R
MOUNT PLEASANT LGT RAIN  82  70  65 S12       30.10S
WALTERBORO     MOCLDY    82  70  65 S7        30.09S
BEAUFORT       SUNNY     83  74  74 SE6       30.09S


...EASTERN GEORGIA...

CITY           SKY/WX    TMP DP  RH WIND       PRES   REMARKS
AUGUSTA BUSH F MOSUNNY   86  69  56 S8        30.06S
AUGUSTA DANIEL CLOUDY    88  68  51 S9        30.08S
THOMSON        SUNNY     88  72  59 SW5       30.12F HX  95
WASHINGTON     FAIR      88  73  62 W5        30.09S HX  96
CLAXTON        FAIR      86  70  58 CALM      30.08S
SYLVANIA       PTCLDY    86  72  62 CALM      30.09S
SAVANNAH       PTSUNNY   83  73  72 S12       30.08S


...SOUTHERN NORTH CAROLINA...

CITY           SKY/WX    TMP DP  RH WIND       PRES   REMARKS
CHARLOTTE      MOSUNNY   88  63  43 S8        30.05F
MONROE         MOSUNNY   85  69  58 S6G17     30.06S
WADESBORO      CLEAR     86  66  52 SE8       30.05S
ROCKINGHAM     PTCLDY    84  69  60 S7        30.06S
ASHEVILLE      MOSUNNY   81  60  48 N9        30.15R

$$


USA.gov is the U.S. government's official web portal to all federal, state and local government web resources and services.